Regional Weather Roundup
Issued by NWS

Home | Current Version | Previous Version | Graphics & Text | Print | Product List | Glossary On
Versions: 1 2 3 4 5 6 7 8 9 10 11 12 13 14 15 16 17 18 19 20 21 22 23 24 25 26 27 28 29 30 31 32 33 34 35 36 37 38 39 40 41 42 43 44 45 46 47 48 49 50
000
ASUS43 KDMX 270406
RWRIA

WEATHER ROUNDUP FOR IOWA
NATIONAL WEATHER SERVICE DES MOINES IA
1100 PM CDT SAT MAY 26 2018

NOTE: "FAIR" INDICATES FEW OR NO CLOUDS BELOW 12,000 FEET WITH NO
SIGNIFICANT WEATHER AND/OR OBSTRUCTIONS TO VISIBILITY.

* - THESE STATIONS ARE NOT NWS STATIONS...THUS NOT UNDER NWS
QUALITY CONTROL.  THEY ALSO DO NOT REPORT WEATHER SUCH
AS PRECIPITATION OR FOG.

IAZ001>003-012>014-020>022-031>034-043>046-270500-
   NORTHWEST IOWA

CITY           SKY/WX    TMP DP  RH WIND       PRES   REMARKS
CARROLL *      CLEAR     72  55  56 NE6       29.78R
CHEROKEE *     CLEAR     68  62  83 CALM      29.78R
DENISON *      CLEAR     72  57  60 E3        29.80R
LE MARS *      CLEAR     73  59  60 S5        29.77R
ORANGE CITY *  CLEAR     86  52  30 NE3       29.79R HX  84
SHELDON *      CLEAR     75  54  46 NE3       29.78R
SIOUX CITY     CLEAR     76  59  55 E3        29.76R
SPENCER        CLEAR     74  59  59 CALM      29.79R
STORM LAKE *   CLEAR     79  54  41 NE6       29.80R
$$

IAZ055>058-069>071-079>083-090>094-270500-
   SOUTHWEST IOWA

CITY           SKY/WX    TMP DP  RH WIND       PRES   REMARKS
ATLANTIC *     CLEAR     72  59  64 N5        29.78S
AUDUBON *      CLEAR     68  59  73 CALM      29.80S
CLARINDA *       N/A     72  66  83 CALM      29.80R
COUNCIL BLFS * CLEAR     81  55  41 SE6       29.78R HX  80
CRESTON *      CLEAR     79  68  69 S8        29.81S HX  81
HARLAN  *      CLEAR     73  57  56 CALM      29.81S
LAMONI         CLEAR     79  68  69 S7        29.80R HX  81
RED OAK *      CLEAR     75  57  53 CALM      29.78R
SHENANDOAH *   CLEAR     77  61  57 NE5       29.78R
$$

IAZ047>049-059>061-072>074-084-270500-
   CENTRAL IOWA

CITY           SKY/WX    TMP DP  RH WIND       PRES   REMARKS
AMES           CLEAR     74  66  76 CALM      29.76R
ANKENY *       CLEAR     73  64  73 CALM      29.78R
BOONE *        CLEAR     79  54  41 CALM      29.77S
CHARITON *     CLEAR     77  68  73 S7        29.79S
DES MOINES     CLEAR     81  65  58 S7        29.76R HX  83
GRINNELL*      CLEAR     76  68  75 SE7       29.79S
KNOXVILLE *    CLEAR     79  64  61 S5        29.77S HX  81
MARSHALLTOWN   CLEAR     77  69  76 SE5       29.77S
NEWTON *       CLEAR     75  66  73 S6        29.78S
PELLA *        CLEAR     76  67  74 CALM      29.79S
PERRY *        FAIR      77  45  32 CALM      29.77R
$$

IAZ004>006-015-016-023>025-035-036-270500-
   NORTH CENTRAL IOWA

CITY           SKY/WX    TMP DP  RH WIND       PRES   REMARKS
ALGONA *       CLEAR     75  63  64 CALM      29.79R
CLARION *      CLEAR     77  55  47 CALM      29.78R
ESTHERVILLE    CLEAR     71  61  70 CALM      29.78R
FORT DODGE *   CLEAR     73  59  61 CALM      29.78R
MASON CITY     CLEAR     73  58  59 W3        29.79R
FOREST CITY *  FAIR      68  59  73 CALM      29.78S
WEBSTER CITY * CLEAR     75  55  50 SE7       29.76R
IOWA FALLS *   FAIR      79  67  65 S10       29.79S HX  81
$$

IAZ007>011-017>019-026>030-037>042-050>054-066-270500-
   NORTHEAST IOWA

CITY           SKY/WX    TMP DP  RH WIND       PRES   REMARKS
CEDAR RAPIDS   FAIR      75  69  81 E3        29.78R
CHARLES CITY * FAIR      75  66  73 S9        29.78S
CLINTON *        N/A     74  67  78 SE5       29.80R
DECORAH *      FAIR      79  64  61 S6        29.78R HX  81
DUBUQUE        FAIR      74  63  68 S3        29.81R
MONTICELLO *   FAIR      73  68  83 CALM      29.79R
OELWEIN *      FAIR      77  66  69 SE5       29.79S
WATERLOO       FAIR      79  68  69 S8        29.76R HX  81
$$

IAZ064-065-067-068-078-270500-
   EAST CENTRAL IOWA

CITY           SKY/WX    TMP DP  RH WIND       PRES   REMARKS
DAVENPORT      FAIR      73  65  75 S3        29.81R
IOWA CITY      FAIR      75  69  81 S3        29.79R
MT. PLEASANT * CLEAR     72  66  83 S6        29.80R
MUSCATINE *    FAIR      73  70  88 CALM      29.79R
QUAD CITIES    FAIR      76  70  82 SE3       29.79R
$$

IAZ062-063-075>077-085>089-095>099-270500-
   SOUTHEAST IOWA

CITY           SKY/WX    TMP DP  RH WIND       PRES   REMARKS
BURLINGTON     CLOUDY    72  67  84 CALM      29.80R
FAIRFIELD *    CLEAR     77  64  65 S6        29.79R
FORT MADISON * CLOUDY    75  66  73 CALM      29.81R
KEOKUK *       CLOUDY    73  64  73 CALM      29.79S
OSKALOOSA *    FAIR      76  67  74 S7        29.79S
CENTERVILLE *    N/A     75  72  88 CALM      29.81S
OTTUMWA        CLEAR     77  67  71 S5        29.78R
WASHINGTON *   CLEAR     75  72  88 S7        29.80R
$$

ABBREVIATIONS USED IN REMARKS
   TC - TEMPERATURES IN CELSIUS
  WCI - WIND CHILL INDEX
   HX - HEAT INDEX
  VSB - VISIBILITY
$$





USA.gov is the U.S. government's official web portal to all federal, state and local government web resources and services.